Location: Unspecified
(0.0000°N, 0.0000°E)
Time: 11:03:39
(UTC+00:00)

Explorer 7 - Pass Details

Date: 24 November 2019
Orbit: 485 x 680 km, 50.3° (Epoch: 14 December)

Event Time Altitude Azimuth Distance (km) Brightness Sun altitude
Rises 06:19:40 0° 342° (NNW) 2,584 9.9 7.8°
Reaches altitude 10° 06:22:09 10° 356° (N) 1,681 9.1 8.3°
Maximum altitude 06:25:18 25° 53° (NE) 1,025 8.7 9.1°
Drops below altitude 10° 06:28:23 10° 109° (ESE) 1,659 13.5 9.8°
Sets 06:30:49 0° 123° (ESE) 2,540 12.1 10.4°
